[[{"header":{"parameterUnit":"m.s-1","parameterCategory":2,"la1":30.2991,"la2":30.254,"lo1":-89.0895,"lo2":-89.0444,"dy":0.0017,"dx":0.0017,"nx":28,"ny":28,"refTime":"2025-08-18T09:00:00:Z","depth":"0","parameterNumber":2,"parameterNumberName":"U-component_of_CURRENTS"},"data":[0,0,0,0,0,0,0,0,0,0,0,0,0,0,0,0,0,0,0,0,0,0,0,0,0,0,0,0,0,0,0,0,0,0,0,0,0,0,0,0,0,0,0,0,0,0,0,0,0,0,0,0,0,0,0,0,0,0,-0.3591,-0.3592,0,-0.3706,-0.3708,-0.3709,-0.3662,-0.3659,-0.3657,-0.3654,-0.3539,-0.3539,-0.3538,0,0,0,0,0,0,0,0,0,0,0,0,0,-0.3176,-0.3184,-0.359,-0.3592,-0.3594,-0.3706,-0.3708,-0.3709,-0.3662,-0.3659,-0.3656,-0.3653,-0.354,-0.3539,-0.3538,0,0,0,0,0,0,0,0,0,0,0,0,0,-0.3328,-0.3187,-0.359,-0.3586,-0.3587,-0.3706,-0.3708,-0.3709,-0.3663,-0.3659,-0.3655,-0.3652,-0.354,-0.3539,-0.3538,-0.3605,0,0,-0.3534,-0.3534,0,0,0,0,0,0,0,0,-0.3319,-0.3343,-0.3585,-0.3587,-0.3588,-0.3668,-0.3519,-0.3664,-0.3664,-0.3631,-0.3654,-0.365,-0.3566,-0.3562,-0.3592,-0.36,-0.3595,-0.3534,-0.3533,-0.3533,-0.3533,0,0,0,0,0,0,0,-0.3309,-0.3337,-0.3633,-0.3587,-0.3589,-0.3526,-0.3545,-0.3547,-0.3611,-0.3633,-0.3631,-0.365,-0.3564,-0.3593,-0.3588,-0.3593,-0.3534,-0.3533,-0.3533,-0.3532,-0.3589,-0.3591,0,0,0,0,0,0,-0.3315,-0.3329,-0.363,-0.3637,-0.3445,-0.3538,-0.3558,-0.3644,-0.3616,-0.3611,-0.3653,-0.3647,-0.3597,-0.3589,-0.3583,-0.3626,-0.3533,-0.3532,-0.3531,-0.3587,-0.359,-0.3592,0,0,0,0,0,0,-0.3307,-0.3344,-0.3625,-0.3482,-0.3514,-0.355,-0.3646,-0.3648,-0.3666,-0.3634,-0.3623,-0.3666,-0.3594,-0.3585,-0.3582,-0.3621,-0.3531,-0.353,-0.3585,-0.3588,-0.3591,-0.3732,0,0,0,0,0,0,-0.3296,-0.3342,-0.3407,-0.3486,-0.3523,-0.3705,-0.365,-0.3653,-0.3686,-0.3679,-0.3643,-0.3629,-0.359,-0.3584,-0.3581,-0.3618,-0.353,-0.3582,-0.3586,-0.359,-0.3724,-0.374,-0.3752,0,0,0,0,0,-0.3282,-0.3384,-0.3411,-0.3446,-0.3614,-0.3708,-0.3722,-0.3728,-0.369,-0.3724,-0.3685,-0.363,-0.3607,-0.3586,-0.3581,-0.3619,-0.358,-0.3585,-0.359,-0.3718,-0.3737,-0.3752,0,0,0,0,0,0,-0.3236,-0.3392,-0.3422,-0.3569,-0.3638,-0.3701,-0.3732,-0.374,-0.3746,-0.3716,-0.3666,-0.3653,-0.3664,-0.3629,-0.3606,-0.3647,-0.3582,-0.3587,-0.3682,-0.3698,-0.3712,-0.3667,-0.3529,0,0,0,0,0,-0.3265,-0.3383,-0.3495,-0.3607,-0.364,-0.3688,-0.3724,-0.3736,-0.3753,-0.3752,-0.3737,-0.3705,-0.3692,-0.368,-0.3669,-0.37,-0.3582,-0.3718,-0.3733,-0.3745,-0.3705,-0.3597,-0.3596,-0.3609,-0.3608,-0.3608,0,0,-0.3277,-0.3377,-0.3443,-0.3604,-0.3645,-0.3711,-0.3699,-0.3762,-0.3803,-0.3737,-0.3775,-0.3757,-0.3711,-0.3741,-0.3743,-0.3709,-0.3678,-0.3751,-0.3762,-0.3714,-0.3601,-0.3599,-0.3598,-0.3612,-0.3611,-0.3611,0,0,-0.3314,-0.3446,-0.3524,-0.3594,-0.3682,-0.3731,-0.3751,-0.3829,-0.3847,-0.3907,-0.3851,-0.3852,-0.3864,-0.3835,-0.3817,-0.3902,-0.3758,-0.3909,-0.3942,-0.3841,-0.3837,-0.3832,-0.3667,-0.3647,-0.3915,-0.3916,-0.3916,0,-0.3301,-0.343,-0.3553,-0.3621,-0.3651,-0.3737,-0.377,-0.3847,-0.3914,-0.3899,-0.3925,-0.3901,-0.3903,-0.3869,-0.3924,-0.3931,-0.3816,-0.3886,-0.3854,-0.3848,-0.384,-0.3672,-0.3648,-0.3923,-0.3922,-0.3921,-0.3921,0,-0.337,-0.3463,-0.3504,-0.363,-0.37,-0.3746,-0.3853,-0.391,-0.3947,-0.3984,-0.3985,-0.4007,-0.3964,-0.4007,-0.4006,-0.3965,-0.388,-0.3885,-0.3804,-0.3847,-0.3668,-0.3639,-0.3934,-0.3931,-0.3929,-0.3927,0,0,-0.3301,-0.3509,-0.3506,-0.3512,-0.3684,-0.3709,-0.3825,-0.3885,-0.3853,-0.3989,-0.3914,-0.4028,-0.4016,-0.3994,-0.3996,-0.3955,-0.3863,-0.3917,-0.3908,-0.3737,-0.3566,-0.3491,-0.3452,-0.3857,-0.3853,-0.385,-0.3455,0,-0.3266,-0.3347,-0.3492,-0.3521,-0.3532,-0.3662,-0.3729,-0.3806,-0.3862,-0.3836,-0.3896,-0.3853,-0.4021,-0.3963,-0.3982,-0.3864,-0.3796,-0.3964,-0.3561,-0.3546,-0.3464,-0.3421,-0.3322,-0.2961,-0.3426,-0.3421,-0.3418,0,-0.3209,-0.327,-0.3301,-0.3367,-0.338,-0.3437,-0.3447,-0.3529,-0.3586,-0.3611,-0.365,-0.3672,-0.3677,-0.3778,-0.3668,-0.376,-0.3678,-0.3608,-0.3591,-0.344,-0.342,-0.2997,-0.289,-0.2899,-0.3373,-0.3376,-0.338,0,-0.2957,-0.3084,-0.3077,-0.3115,-0.3261,-0.3264,-0.3332,-0.3419,-0.3439,-0.3429,-0.3396,-0.343,-0.3394,-0.3359,-0.3394,-0.3473,-0.319,-0.3258,-0.3093,-0.3082,-0.2873,-0.2852,-0.2707,-0.3107,-0.3107,-0.3109,-0.311,0,-0.2806,-0.2782,-0.2945,-0.2933,-0.2891,-0.3045,-0.3001,-0.3077,-0.3127,-0.3107,-0.3247,-0.3207,-0.3293,-0.3222,-0.3233,-0.3084,-0.3072,-0.3039,-0.2972,-0.2922,-0.2911,-0.281,-0.287,-0.3094,-0.3097,-0.31,-0.3102,0,-0.2549,-0.2661,-0.2647,-0.2761,-0.278,-0.2745,-0.2861,-0.2834,-0.2907,-0.2868,-0.286,-0.2969,-0.2896,-0.2935,-0.2798,-0.2837,-0.2635,-0.2633,-0.2555,-0.2489,-0.2375,-0.2448,-0.215,-0.2084,-0.2327,-0.2323,-0.2319,0,-0.2445,-0.2412,-0.2494,-0.2491,-0.2554,-0.2555,-0.2573,-0.2698,-0.2707,-0.2745,-0.2699,-0.2643,-0.2629,-0.2424,-0.2411,-0.2275,-0.2392,-0.2109,-0.2284,-0.2302,-0.2332,-0.2409,-0.2384,-0.2031,-0.2025,-0.2021,-0.2017,0,-0.2248,-0.2279,-0.2293,-0.2289,-0.2297,-0.2313,-0.2356,-0.2337,-0.247,-0.2451,-0.2423,-0.2385,-0.2256,-0.2133,-0.2006,-0.1955,-0.2077,-0.2009,-0.2035,-0.2079,-0.2134,-0.206,-0.2336,-0.1976,-0.198,-0.1983,-0.1985,-0.1987,-0.2104,-0.2073,-0.2098,-0.208,-0.2094,-0.2086,-0.2045,-0.2114,-0.2101,-0.2091,-0.2142,-0.2058,-0.1985,-0.1814,-0.1737,-0.1616,-0.1729,-0.1622,-0.1688,-0.1749,-0.1764,-0.1937,-0.1538,-0.154,-0.1541,-0.1542,-0.1543,0,-0.1931,-0.192,-0.1899,-0.1882,-0.1838,-0.1906,-0.1906,-0.1861,-0.1814,-0.184,-0.1805,-0.1725,-0.1589,-0.1547,-0.1432,-0.1354,-0.1358,-0.1343,-0.1445,-0.142,-0.153,-0.1607,-0.1198,-0.1198,-0.1198,-0.1198,-0.1198,-0.1198,-0.1838,-0.1759,-0.1758,-0.1636,-0.1625,-0.1521,-0.1494,-0.1466,-0.1458,-0.1387,-0.1367,-0.1325,-0.1354,-0.1479,-0.1369,-0.1287,-0.1304,-0.1236,-0.1287,-0.1434,-0.1468,-0.1501,-0.1588,-0.1181,-0.1181,-0.1123,-0.1122,-0.1122]},{"header":{"parameterUnit":"m.s-1","parameterCategory":2,"la1":30.2991,"la2":30.254,"lo1":-89.0895,"lo2":-89.0444,"dy":0.0017,"dx":0.0017,"nx":28,"ny":28,"refTime":"2025-08-18T09:00:00:Z","depth":"0","parameterNumber":3,"parameterNumberName":"V-component_of_CURRENTS"},"data":[0,0,0,0,0,0,0,0,0,0,0,0,0,0,0,0,0,0,0,0,0,0,0,0,0,0,0,0,0,0,0,0,0,0,0,0,0,0,0,0,0,0,0,0,0,0,0,0,0,0,0,0,0,0,0,0,0,0,-0.0181,-0.018,0,0.0006,0.0008,0.001,0.0122,0.0122,0.0122,0.0123,0.0276,0.028,0.0283,0,0,0,0,0,0,0,0,0,0,0,0,0,-0.0376,-0.0373,-0.0182,-0.0179,-0.0177,0.0005,0.0008,0.001,0.0121,0.0122,0.0123,0.0123,0.0275,0.0279,0.0284,0,0,0,0,0,0,0,0,0,0,0,0,0,-0.025,-0.0373,-0.0182,-0.01,-0.0091,0.0005,0.0008,0.0011,0.0121,0.0122,0.0123,0.0123,0.0274,0.0279,0.0284,0.0305,0,0,0.0301,0.0304,0,0,0,0,0,0,0,0,-0.0258,-0.0243,-0.0114,-0.0106,-0.0095,0.004,-0.0004,0.0108,0.0121,0.0041,0.0123,0.0124,0.0193,0.0205,0.0241,0.0312,0.0319,0.0302,0.0305,0.0307,0.0309,0,0,0,0,0,0,0,-0.0267,-0.025,-0.0107,-0.0112,-0.01,-0.005,-0.0032,0.0018,0.0111,0.0048,0.0057,0.0076,0.0199,0.0235,0.0245,0.0321,0.0302,0.0306,0.031,0.0312,0.0397,0.0396,0,0,0,0,0,0,-0.0295,-0.0259,-0.0113,-0.0101,-0.0177,-0.0047,-0.0027,-0.0003,0.0112,0.013,0.0076,0.0081,0.0225,0.0238,0.0251,0.026,0.0307,0.0312,0.0316,0.0398,0.0397,0.0395,0,0,0,0,0,0,-0.0299,-0.0283,-0.012,-0.0177,-0.0152,-0.0045,-0.0019,-0.0,0.004,0.0133,0.0151,0.0096,0.0226,0.0243,0.0281,0.0267,0.0315,0.032,0.0399,0.0397,0.0396,0.0292,0,0,0,0,0,0,-0.0306,-0.0286,-0.0283,-0.0178,-0.015,-0.0072,-0.0019,0.0003,0.0051,0.0059,0.0155,0.0171,0.0228,0.0272,0.0287,0.0276,0.0324,0.04,0.0398,0.0396,0.0297,0.0287,0.0279,0,0,0,0,0,-0.0313,-0.0314,-0.0284,-0.0267,-0.0148,-0.0072,-0.0053,0.0026,0.005,0.0064,0.0118,0.0168,0.027,0.0276,0.0293,0.0283,0.0401,0.0399,0.0397,0.0301,0.0289,0.0279,0,0,0,0,0,0,-0.04,-0.03,-0.0265,-0.0236,-0.0164,-0.0054,-0.0038,0.0017,0.0075,0.0075,0.016,0.0178,0.0205,0.0254,0.0259,0.03,0.0342,0.0343,0.0264,0.0253,0.0245,0.0213,0.0329,0,0,0,0,0,-0.0419,-0.0394,-0.029,-0.0272,-0.0241,-0.0143,-0.0104,-0.005,0.0018,0.0046,0.0112,0.0169,0.0209,0.0238,0.0285,0.031,0.0354,0.0313,0.0304,0.0296,0.0281,0.0316,0.0309,0.0388,0.0388,0.0388,0,0,-0.045,-0.0393,-0.0379,-0.0289,-0.0231,-0.0191,-0.0118,-0.0069,-0.0041,0.005,0.009,0.014,0.0207,0.0234,0.0251,0.0274,0.03,0.0293,0.0286,0.0275,0.0313,0.0306,0.0299,0.0386,0.0386,0.0387,0,0,-0.0505,-0.0449,-0.0446,-0.0389,-0.0307,-0.0239,-0.023,-0.0126,-0.0087,-0.0037,0.002,0.0054,0.014,0.0176,0.0205,0.0173,0.0248,0.0192,0.0128,0.0163,0.0157,0.0152,0.0212,0.0213,0.0191,0.0191,0.0191,0,-0.0549,-0.0524,-0.0436,-0.0415,-0.0385,-0.0269,-0.0262,-0.0198,-0.0097,-0.0086,-0.0041,0.0047,0.0109,0.0123,0.0116,0.0153,0.0193,0.0164,0.015,0.0146,0.0143,0.0206,0.0208,0.0186,0.0186,0.0187,0.0187,0,-0.059,-0.0571,-0.0568,-0.0502,-0.0457,-0.0433,-0.0334,-0.0296,-0.0235,-0.0173,-0.0142,-0.0059,-0.001,0.0016,0.0063,0.006,0.0104,0.0131,0.0175,0.0129,0.0198,0.0203,0.0178,0.018,0.0181,0.0183,0,0,-0.0681,-0.0615,-0.0614,-0.0605,-0.0506,-0.0471,-0.0442,-0.0384,-0.0373,-0.0282,-0.0274,-0.0201,-0.0155,-0.0121,-0.006,-0.0025,0.0001,0.0037,0.0041,0.0091,0.0095,0.0161,0.0173,0.0025,0.0025,0.0025,0.0159,0,-0.0743,-0.0745,-0.0691,-0.069,-0.0676,-0.0587,-0.0567,-0.0503,-0.0434,-0.0389,-0.0314,-0.0272,-0.0204,-0.0183,-0.0143,-0.0028,0.0005,-0.0037,0.0137,0.0143,0.0201,0.0177,0.0229,0.0356,0.0164,0.0165,0.0166,0,-0.079,-0.0787,-0.0809,-0.0783,-0.0773,-0.0754,-0.0712,-0.0677,-0.0594,-0.0548,-0.0497,-0.0414,-0.0346,-0.0282,-0.013,-0.0158,-0.0054,0.0035,0.0043,0.0138,0.0215,0.0369,0.0372,0.0537,0.0173,0.0173,0.0172,0,-0.087,-0.0864,-0.0893,-0.0877,-0.0825,-0.0836,-0.0807,-0.0735,-0.0709,-0.0644,-0.0605,-0.0522,-0.0441,-0.0331,-0.0124,-0.0132,0.006,0.0078,0.0227,0.0235,0.0331,0.0347,0.0507,0.0153,0.0152,0.0152,0.0152,0,-0.0932,-0.095,-0.0935,-0.0939,-0.0975,-0.0915,-0.0929,-0.0889,-0.0828,-0.0789,-0.069,-0.0623,-0.0449,-0.0299,-0.0154,0.0073,0.0043,0.021,0.0265,0.0299,0.031,0.0499,0.0555,0.0157,0.0156,0.0155,0.0154,0,-0.0983,-0.0976,-0.1003,-0.1,-0.1001,-0.1019,-0.0989,-0.0988,-0.0923,-0.0864,-0.0844,-0.0677,-0.0477,-0.0286,-0.0063,0.0066,0.0363,0.0326,0.037,0.0425,0.0692,0.0739,0.0947,0.1051,0.0496,0.0498,0.05,0,-0.1003,-0.1023,-0.1049,-0.1071,-0.1069,-0.1083,-0.1088,-0.104,-0.1018,-0.0876,-0.0845,-0.065,-0.0477,-0.0119,0.0121,0.0378,0.0492,0.0568,0.0544,0.0712,0.0805,0.0841,0.0915,0.0646,0.0649,0.0652,0.0654,0,-0.1039,-0.105,-0.1075,-0.1126,-0.1149,-0.1166,-0.116,-0.1152,-0.1068,-0.0979,-0.0815,-0.067,-0.0317,0.0013,0.0337,0.0489,0.0699,0.0625,0.0787,0.0917,0.0979,0.1106,0.057,0.0675,0.0673,0.0671,0.067,0.0669,-0.106,-0.1093,-0.1129,-0.1173,-0.1207,-0.1224,-0.1215,-0.117,-0.1098,-0.0896,-0.079,-0.0465,-0.0065,0.0407,0.0576,0.0953,0.0897,0.1065,0.1106,0.1127,0.1225,0.0742,0.0909,0.0908,0.0908,0.0907,0.0907,0,-0.1073,-0.1112,-0.1168,-0.1216,-0.1255,-0.1257,-0.124,-0.1178,-0.1056,-0.079,-0.0587,-0.0031,0.0375,0.0757,0.122,0.1426,0.1465,0.1526,0.159,0.1642,0.1218,0.1221,0.1478,0.1478,0.1478,0.1478,0.1478,0.1478,-0.108,-0.1131,-0.1164,-0.1231,-0.1265,-0.1265,-0.124,-0.1111,-0.0903,-0.043,-0.0017,0.0276,0.0762,0.1399,0.1835,0.1874,0.2055,0.2034,0.2127,0.1831,0.1791,0.1753,0.1771,0.214,0.214,0.2556,0.256,0.2563]}],[{"header":{"parameterUnit":"m.s-1","parameterCategory":2,"la1":30.2991,"la2":30.254,"lo1":-89.0895,"lo2":-89.0444,"dy":0.0017,"dx":0.0017,"nx":28,"ny":28,"refTime":"2025-08-18T09:00:00:Z","depth":"2","parameterNumber":2,"parameterNumberName":"U-component_of_CURRENTS"},"data":[0,0,0,0,0,0,0,0,0,0,0,0,0,0,0,0,0,0,0,0,0,0,0,0,0,0,0,0,0,0,0,0,0,0,0,0,0,0,0,0,0,0,0,0,0,0,0,0,0,0,0,0,0,0,0,0,0,0,-0.2477,-0.2479,0,-0.2564,-0.2563,-0.2563,-0.2519,-0.2518,-0.2517,-0.2516,-0.2587,-0.259,-0.2592,0,0,0,0,0,0,0,0,0,0,0,0,0,-0.2379,-0.2379,-0.2477,-0.248,-0.2482,-0.2564,-0.2563,-0.2563,-0.2519,-0.2518,-0.2517,-0.2516,-0.2586,-0.2589,-0.2593,0,0,0,0,0,0,0,0,0,0,0,0,0,-0.2424,-0.2379,-0.2477,-0.2481,-0.2484,-0.2564,-0.2563,-0.2563,-0.2519,-0.2518,-0.2516,-0.2515,-0.2585,-0.2589,-0.2593,-0.2644,0,0,-0.2605,-0.2607,0,0,0,0,0,0,0,0,-0.2421,-0.2425,-0.2478,-0.2481,-0.2484,-0.2543,-0.2556,-0.2595,-0.2519,-0.2489,-0.2516,-0.2515,-0.2582,-0.2586,-0.2583,-0.2647,-0.265,-0.2606,-0.2608,-0.261,-0.2611,0,0,0,0,0,0,0,-0.2418,-0.2422,-0.2495,-0.2481,-0.2485,-0.2517,-0.2519,-0.2562,-0.2529,-0.2492,-0.2492,-0.2527,-0.2581,-0.2579,-0.2585,-0.2651,-0.2606,-0.2609,-0.2612,-0.2613,-0.2783,-0.2785,0,0,0,0,0,0,-0.2435,-0.2419,-0.2493,-0.25,-0.2467,-0.252,-0.2522,-0.2512,-0.2529,-0.2535,-0.2529,-0.2525,-0.2573,-0.258,-0.2587,-0.2619,-0.261,-0.2614,-0.2616,-0.2781,-0.2784,-0.2786,0,0,0,0,0,0,-0.2431,-0.2438,-0.249,-0.2476,-0.2487,-0.2524,-0.2514,-0.2515,-0.2522,-0.256,-0.2562,-0.2537,-0.2572,-0.2582,-0.2627,-0.2622,-0.2615,-0.2619,-0.2779,-0.2782,-0.2785,-0.2702,0,0,0,0,0,0,-0.2427,-0.2435,-0.2431,-0.2476,-0.2489,-0.2543,-0.2517,-0.2518,-0.2553,-0.2549,-0.2569,-0.2573,-0.2572,-0.2621,-0.2631,-0.2628,-0.2622,-0.2776,-0.278,-0.2784,-0.2702,-0.2702,-0.2702,0,0,0,0,0,-0.2422,-0.2426,-0.2428,-0.2439,-0.248,-0.2547,-0.2554,-0.2567,-0.2555,-0.2564,-0.2573,-0.2573,-0.2653,-0.2626,-0.2637,-0.2635,-0.2774,-0.2779,-0.2783,-0.2702,-0.2702,-0.2702,0,0,0,0,0,0,-0.239,-0.2425,-0.2428,-0.2442,-0.2497,-0.2545,-0.2563,-0.258,-0.2593,-0.2595,-0.2596,-0.2602,-0.2657,-0.2672,-0.2641,-0.2705,-0.2717,-0.2724,-0.2651,-0.2651,-0.2651,-0.2605,-0.2626,0,0,0,0,0,-0.2384,-0.2382,-0.2442,-0.2458,-0.2481,-0.2523,-0.2552,-0.258,-0.2611,-0.2613,-0.2625,-0.2652,-0.2688,-0.2686,-0.2741,-0.2759,-0.2756,-0.2774,-0.2773,-0.2772,-0.2749,-0.2739,-0.2733,-0.2801,-0.2801,-0.2801,0,0,-0.2381,-0.2404,-0.2404,-0.2452,-0.2482,-0.2509,-0.2531,-0.2596,-0.2601,-0.2626,-0.2623,-0.2677,-0.2708,-0.2733,-0.2755,-0.2732,-0.2759,-0.2778,-0.2776,-0.2753,-0.2743,-0.2736,-0.2729,-0.2805,-0.2804,-0.2803,0,0,-0.2379,-0.2388,-0.2384,-0.2426,-0.2504,-0.2529,-0.2553,-0.2613,-0.2611,-0.2655,-0.267,-0.2695,-0.2759,-0.2738,-0.2745,-0.2781,-0.2789,-0.2834,-0.2747,-0.2737,-0.2729,-0.2722,-0.2716,-0.2709,-0.2792,-0.2792,-0.2792,0,-0.2375,-0.2372,-0.2404,-0.2424,-0.2461,-0.253,-0.2555,-0.2566,-0.2633,-0.2638,-0.2655,-0.2723,-0.2741,-0.2725,-0.2724,-0.2768,-0.2783,-0.2728,-0.2728,-0.2721,-0.2715,-0.271,-0.2704,-0.2788,-0.2789,-0.2789,-0.279,0,-0.2371,-0.2377,-0.239,-0.2408,-0.2449,-0.2503,-0.2542,-0.2572,-0.2599,-0.2615,-0.2653,-0.2672,-0.2697,-0.2713,-0.2716,-0.2693,-0.2726,-0.2753,-0.2705,-0.2702,-0.27,-0.2694,-0.2784,-0.2785,-0.2786,-0.2787,0,0,-0.2337,-0.2373,-0.2376,-0.2391,-0.2457,-0.25,-0.2506,-0.2539,-0.2551,-0.2583,-0.2583,-0.2593,-0.2619,-0.2628,-0.2643,-0.2598,-0.2558,-0.2642,-0.2644,-0.2594,-0.2551,-0.2439,-0.2423,-0.2591,-0.259,-0.2589,-0.2565,0,-0.2324,-0.2347,-0.2367,-0.2397,-0.2419,-0.2477,-0.2477,-0.2521,-0.2554,-0.2573,-0.2563,-0.2592,-0.2578,-0.2605,-0.2553,-0.2603,-0.254,-0.2562,-0.2598,-0.2598,-0.2464,-0.241,-0.2249,-0.2202,-0.256,-0.2559,-0.2558,0,-0.2307,-0.2329,-0.2348,-0.24,-0.2413,-0.2434,-0.2486,-0.2503,-0.253,-0.2559,-0.2557,-0.2588,-0.254,-0.2545,-0.2505,-0.2534,-0.2519,-0.2519,-0.2519,-0.243,-0.2474,-0.2269,-0.2178,-0.2548,-0.2549,-0.255,-0.255,0,-0.2276,-0.2318,-0.2331,-0.2353,-0.2411,-0.2426,-0.2458,-0.2499,-0.251,-0.2549,-0.2576,-0.2555,-0.2554,-0.253,-0.2499,-0.2527,-0.2461,-0.251,-0.2376,-0.237,-0.224,-0.2224,-0.2442,-0.2442,-0.2442,-0.2442,-0.2442,0,-0.2254,-0.2265,-0.2321,-0.2332,-0.235,-0.2414,-0.2434,-0.2468,-0.2515,-0.2509,-0.2556,-0.2536,-0.2551,-0.2518,-0.2499,-0.2395,-0.2451,-0.233,-0.2336,-0.2212,-0.2194,-0.251,-0.2518,-0.2441,-0.2441,-0.2441,-0.2441,0,-0.2189,-0.2233,-0.2249,-0.2311,-0.2328,-0.2341,-0.2398,-0.2411,-0.248,-0.2479,-0.2488,-0.2521,-0.2472,-0.2457,-0.2425,-0.2372,-0.2314,-0.2255,-0.2101,-0.2085,-0.224,-0.2246,-0.2128,-0.2124,-0.212,-0.2117,-0.2114,0,-0.2143,-0.2149,-0.2206,-0.2206,-0.2221,-0.2258,-0.2269,-0.2361,-0.2372,-0.2433,-0.2411,-0.2403,-0.233,-0.2249,-0.2166,-0.2085,-0.2176,-0.1898,-0.1887,-0.2179,-0.2199,-0.2211,-0.2221,-0.1707,-0.1701,-0.1696,-0.1692,0,-0.2041,-0.2068,-0.2076,-0.2085,-0.2098,-0.2115,-0.2147,-0.2159,-0.2246,-0.2259,-0.2238,-0.2203,-0.2111,-0.1942,-0.1846,-0.1784,-0.1907,-0.1795,-0.2127,-0.1801,-0.1776,-0.1798,-0.1823,-0.165,-0.1654,-0.1657,-0.166,-0.1661,-0.1939,-0.192,-0.1937,-0.193,-0.1951,-0.1947,-0.1914,-0.1961,-0.1963,-0.1942,-0.2003,-0.1893,-0.1865,-0.1614,-0.1515,-0.1448,-0.1587,-0.1544,-0.1561,-0.1583,-0.1528,-0.1496,-0.1308,-0.131,-0.1312,-0.1314,-0.1315,0,-0.1796,-0.179,-0.1778,-0.1768,-0.1733,-0.1797,-0.1798,-0.1738,-0.1683,-0.1688,-0.1644,-0.145,-0.1328,-0.1306,-0.1127,-0.1091,-0.1111,-0.1057,-0.1098,-0.1139,-0.1177,-0.1104,-0.077,-0.0768,-0.0767,-0.0766,0,0,-0.1717,-0.1654,-0.1652,-0.1549,-0.1541,-0.1443,-0.1414,-0.1354,-0.132,-0.1222,-0.1166,-0.1244,-0.1254,-0.1018,-0.0959,-0.0832,-0.0977,-0.0783,-0.1218,-0.1307,-0.1342,-0.145,-0.1381,0,0,0,0,0]},{"header":{"parameterUnit":"m.s-1","parameterCategory":2,"la1":30.2991,"la2":30.254,"lo1":-89.0895,"lo2":-89.0444,"dy":0.0017,"dx":0.0017,"nx":28,"ny":28,"refTime":"2025-08-18T09:00:00:Z","depth":"2","parameterNumber":3,"parameterNumberName":"V-component_of_CURRENTS"},"data":[0,0,0,0,0,0,0,0,0,0,0,0,0,0,0,0,0,0,0,0,0,0,0,0,0,0,0,0,0,0,0,0,0,0,0,0,0,0,0,0,0,0,0,0,0,0,0,0,0,0,0,0,0,0,0,0,0,0,-0.0378,-0.0376,0,-0.0287,-0.0286,-0.0285,-0.0215,-0.0214,-0.0213,-0.0212,0.001,0.0015,0.002,0,0,0,0,0,0,0,0,0,0,0,0,0,-0.0427,-0.0427,-0.0378,-0.0376,-0.0375,-0.0287,-0.0286,-0.0285,-0.0215,-0.0214,-0.0213,-0.0212,0.0009,0.0015,0.0021,0,0,0,0,0,0,0,0,0,0,0,0,0,-0.0381,-0.0427,-0.0378,-0.0327,-0.0321,-0.0287,-0.0286,-0.0285,-0.0215,-0.0214,-0.0212,-0.0211,0.0007,0.0014,0.0021,0.0039,0,0,0.0044,0.0048,0,0,0,0,0,0,0,0,-0.0384,-0.038,-0.0336,-0.033,-0.0324,-0.0258,-0.0222,-0.0169,-0.0216,-0.0259,-0.0212,-0.021,-0.0066,-0.0053,-0.0045,0.0049,0.0059,0.0045,0.005,0.0053,0.0055,0,0,0,0,0,0,0,-0.0387,-0.0383,-0.0345,-0.0334,-0.0327,-0.0287,-0.0279,-0.0212,-0.0172,-0.0255,-0.0249,-0.0234,-0.0062,-0.0053,-0.0039,0.0062,0.0045,0.0052,0.0056,0.0059,0.028,0.0282,0,0,0,0,0,0,-0.0397,-0.0386,-0.0348,-0.0342,-0.0347,-0.0287,-0.0279,-0.0283,-0.0175,-0.0157,-0.0236,-0.0231,-0.0066,-0.0048,-0.0031,0.0045,0.0053,0.006,0.0064,0.0279,0.0281,0.0282,0,0,0,0,0,0,-0.0399,-0.0395,-0.0351,-0.0358,-0.0349,-0.0288,-0.0293,-0.0282,-0.0263,-0.0161,-0.0141,-0.0226,-0.0064,-0.0041,0.0032,0.0053,0.0063,0.007,0.0277,0.028,0.0281,0.0166,0,0,0,0,0,0,-0.0401,-0.0397,-0.0406,-0.036,-0.0349,-0.0329,-0.0293,-0.0281,-0.0255,-0.0249,-0.0147,-0.0125,-0.0062,0.002,0.004,0.0063,0.0076,0.0276,0.0278,0.0281,0.0168,0.0164,0.016,0,0,0,0,0,-0.0404,-0.0422,-0.0408,-0.0402,-0.0364,-0.0329,-0.0321,-0.0273,-0.0257,-0.0252,-0.0184,-0.0128,0.0052,0.0026,0.0049,0.0075,0.0275,0.0278,0.0281,0.017,0.0164,0.016,0,0,0,0,0,0,-0.0449,-0.0415,-0.0398,-0.0406,-0.0369,-0.0316,-0.031,-0.0279,-0.0228,-0.0218,-0.0127,-0.0102,-0.0012,0.0042,0.0012,0.0152,0.018,0.0187,0.0088,0.0084,0.008,0.004,0.0082,0,0,0,0,0,-0.0465,-0.047,-0.0424,-0.043,-0.0417,-0.0367,-0.0348,-0.0316,-0.0262,-0.0239,-0.0164,-0.0075,0.0015,0.0053,0.0146,0.0195,0.0235,0.0237,0.0232,0.0228,0.0215,0.0271,0.0269,0.0292,0.0292,0.0292,0,0,-0.0483,-0.0465,-0.0467,-0.0439,-0.0412,-0.0395,-0.0353,-0.033,-0.0309,-0.022,-0.0169,-0.0078,0.0032,0.0105,0.0149,0.0148,0.0246,0.0232,0.0227,0.0216,0.0274,0.0271,0.0269,0.0294,0.0294,0.0294,0,0,-0.0517,-0.051,-0.052,-0.0495,-0.0454,-0.042,-0.0415,-0.0359,-0.033,-0.0274,-0.0189,-0.0112,0.0018,0.0086,0.0141,0.0166,0.0237,0.0223,0.0148,0.0202,0.0199,0.0198,0.024,0.0243,0.02,0.02,0.02,0,-0.0539,-0.0546,-0.0516,-0.0513,-0.0493,-0.0436,-0.0431,-0.0399,-0.0321,-0.0292,-0.0263,-0.0078,0.0005,0.0091,0.0101,0.0154,0.0196,0.0147,0.0191,0.019,0.019,0.0235,0.0239,0.0195,0.0196,0.0196,0.0197,0,-0.0571,-0.0573,-0.0578,-0.0556,-0.0532,-0.0521,-0.0467,-0.0437,-0.0389,-0.0339,-0.024,-0.0143,-0.0037,0.001,0.0059,0.0115,0.015,0.0188,0.0185,0.0179,0.0229,0.0235,0.0188,0.0189,0.0191,0.0192,0,0,-0.0627,-0.0605,-0.0606,-0.0602,-0.0553,-0.0539,-0.0509,-0.0457,-0.0434,-0.0355,-0.0311,-0.0183,-0.013,-0.0065,0.0013,0.0041,0.0069,0.0096,0.0101,0.0106,0.0184,0.0223,0.0235,0.0113,0.0113,0.0114,0.0214,0,-0.0658,-0.067,-0.0641,-0.0641,-0.0641,-0.0582,-0.0559,-0.0505,-0.0443,-0.0386,-0.0295,-0.021,-0.0158,-0.0109,-0.0072,0.0056,0.0083,0.0038,0.0218,0.0223,0.0231,0.0243,0.0225,0.0315,0.0221,0.0222,0.0223,0,-0.0694,-0.0697,-0.0709,-0.0684,-0.0678,-0.0667,-0.0616,-0.0585,-0.0497,-0.0447,-0.0368,-0.0276,-0.02,-0.0161,-0.0008,-0.0036,0.0056,0.0132,0.0139,0.0217,0.0275,0.0313,0.0331,0.0235,0.0234,0.0233,0.0232,0,-0.075,-0.0741,-0.0754,-0.0746,-0.071,-0.0704,-0.0678,-0.0605,-0.0578,-0.0488,-0.0448,-0.0333,-0.0264,-0.0149,0.001,0.0006,0.0176,0.0198,0.0316,0.032,0.0361,0.0368,0.0291,0.0291,0.029,0.029,0.029,0,-0.0792,-0.0802,-0.0787,-0.0796,-0.0809,-0.0761,-0.0754,-0.0709,-0.0641,-0.0601,-0.0491,-0.0426,-0.0259,-0.013,-0.0003,0.018,0.0172,0.0303,0.035,0.0324,0.0325,0.0304,0.0304,0.0294,0.0293,0.0292,0.0292,0,-0.0846,-0.0836,-0.0855,-0.084,-0.0839,-0.085,-0.082,-0.0807,-0.0737,-0.0681,-0.0654,-0.0492,-0.0318,-0.0146,0.0064,0.0173,0.0337,0.0403,0.0355,0.0394,0.0442,0.0436,0.0533,0.0535,0.0537,0.0539,0.054,0,-0.0871,-0.089,-0.0904,-0.0923,-0.0921,-0.0927,-0.0928,-0.0869,-0.0842,-0.0709,-0.068,-0.0502,-0.0348,-0.0037,0.018,0.0408,0.0403,0.052,0.0506,0.0432,0.0468,0.0458,0.045,0.0517,0.0518,0.0519,0.0519,0,-0.0915,-0.0924,-0.0942,-0.0989,-0.1009,-0.102,-0.1009,-0.1003,-0.091,-0.083,-0.0682,-0.0548,-0.0244,0.0024,0.0311,0.0439,0.0478,0.0545,0.05,0.0455,0.0425,0.0457,0.0448,0.0527,0.0526,0.0526,0.0525,0.0525,-0.0944,-0.0974,-0.1003,-0.1043,-0.1073,-0.1087,-0.1081,-0.1036,-0.097,-0.0812,-0.0687,-0.0451,-0.0214,0.0212,0.0406,0.0579,0.0576,0.0623,0.0617,0.0611,0.0589,0.0563,0.0687,0.0687,0.0687,0.0687,0.0687,0,-0.0964,-0.0999,-0.1048,-0.1091,-0.1127,-0.1126,-0.111,-0.1061,-0.096,-0.0795,-0.0612,-0.0318,-0.0014,0.0217,0.0504,0.0675,0.0646,0.0692,0.0624,0.0616,0.061,0.0583,0.0682,0.0682,0.0682,0.0683,0,0,-0.0975,-0.1023,-0.1051,-0.1115,-0.1147,-0.1153,-0.1134,-0.1031,-0.0902,-0.0711,-0.0527,-0.0282,0.0,0.0203,0.0412,0.0554,0.0534,0.0562,0.0553,0.044,0.0431,0.0563,0.0514,0,0,0,0,0]}],[{"header":{"parameterUnit":"m.s-1","parameterCategory":2,"la1":30.2991,"la2":30.254,"lo1":-89.0895,"lo2":-89.0444,"dy":0.0017,"dx":0.0017,"nx":28,"ny":28,"refTime":"2025-08-18T09:00:00:Z","depth":"4","parameterNumber":2,"parameterNumberName":"U-component_of_CURRENTS"},"data":[0,0,0,0,0,0,0,0,0,0,0,0,0,0,0,0,0,0,0,0,0,0,0,0,0,0,0,0,0,0,0,0,0,0,0,0,0,0,0,0,0,0,0,0,0,0,0,0,0,0,0,0,0,0,0,0,0,0,-0.1541,-0.1541,0,-0.1543,-0.1543,-0.1543,-0.1551,-0.1551,-0.1551,-0.1551,-0.1591,-0.1592,-0.1593,0,0,0,0,0,0,0,0,0,0,0,0,0,-0.1564,-0.1563,-0.1541,-0.1541,-0.1541,-0.1543,-0.1543,-0.1543,-0.1551,-0.1551,-0.1551,-0.1551,-0.1591,-0.1592,-0.1593,0,0,0,0,0,0,0,0,0,0,0,0,0,-0.1559,-0.1563,-0.1541,-0.1546,-0.1546,-0.1543,-0.1543,-0.1543,-0.1551,-0.1551,-0.1551,-0.1552,-0.1591,-0.1592,-0.1593,-0.1596,0,0,-0.1597,-0.1598,0,0,0,0,0,0,0,0,-0.1559,-0.1558,-0.1545,-0.1545,-0.1546,-0.1547,-0.1566,-0.1563,-0.1551,-0.1549,-0.1551,-0.1552,-0.158,-0.1582,-0.1581,-0.1598,-0.16,-0.1598,-0.1598,-0.1599,-0.1599,0,0,0,0,0,0,0,-0.1559,-0.1558,-0.1542,-0.1545,-0.1545,-0.1554,-0.1553,-0.1565,-0.1563,-0.1549,-0.155,-0.155,-0.1581,-0.158,-0.1582,-0.16,-0.1598,-0.1599,-0.16,-0.16,-0.1646,-0.1647,0,0,0,0,0,0,-0.1558,-0.1558,-0.1542,-0.1542,-0.1553,-0.1553,-0.1553,-0.1546,-0.1562,-0.1565,-0.155,-0.155,-0.1577,-0.1581,-0.1584,-0.1628,-0.1599,-0.16,-0.1601,-0.1646,-0.1647,-0.1647,0,0,0,0,0,0,-0.1558,-0.1556,-0.1542,-0.1551,-0.155,-0.1553,-0.1546,-0.1546,-0.1566,-0.1563,-0.1566,-0.1571,-0.1578,-0.1582,-0.1607,-0.1628,-0.1601,-0.1602,-0.1645,-0.1646,-0.1647,-0.1692,0,0,0,0,0,0,-0.1559,-0.1556,-0.1563,-0.155,-0.1549,-0.1552,-0.1545,-0.1546,-0.1565,-0.1566,-0.1582,-0.1584,-0.1578,-0.1605,-0.1609,-0.163,-0.1603,-0.1645,-0.1646,-0.1647,-0.169,-0.1694,-0.1697,0,0,0,0,0,-0.1559,-0.1561,-0.1563,-0.1562,-0.1554,-0.1552,-0.1553,-0.1556,-0.1566,-0.1575,-0.1586,-0.1585,-0.1612,-0.1607,-0.1611,-0.1633,-0.1645,-0.1646,-0.1646,-0.1688,-0.1693,-0.1697,0,0,0,0,0,0,-0.1573,-0.1561,-0.1564,-0.1562,-0.1564,-0.1554,-0.1568,-0.157,-0.1586,-0.1599,-0.1595,-0.1598,-0.1622,-0.1622,-0.1616,-0.1646,-0.1627,-0.1629,-0.1657,-0.1662,-0.1665,-0.1688,-0.1604,0,0,0,0,0,-0.1579,-0.158,-0.1571,-0.1574,-0.158,-0.1581,-0.1587,-0.159,-0.1596,-0.1604,-0.1614,-0.1623,-0.1625,-0.1641,-0.164,-0.1668,-0.1672,-0.1682,-0.1686,-0.1689,-0.1709,-0.1727,-0.1735,-0.165,-0.165,-0.165,0,0,-0.1586,-0.1581,-0.1582,-0.1578,-0.1585,-0.1594,-0.1586,-0.1603,-0.1616,-0.1607,-0.1641,-0.1638,-0.1632,-0.1652,-0.1664,-0.1661,-0.1712,-0.1691,-0.1694,-0.1712,-0.1729,-0.1738,-0.1745,-0.1651,-0.1651,-0.1651,0,0,-0.1592,-0.1599,-0.1601,-0.1609,-0.1621,-0.1621,-0.1632,-0.1639,-0.1653,-0.1673,-0.1666,-0.1683,-0.1692,-0.1696,-0.1695,-0.1724,-0.1724,-0.1722,-0.1774,-0.1791,-0.1799,-0.1806,-0.1812,-0.1819,-0.1734,-0.1734,-0.1734,0,-0.1605,-0.1605,-0.1604,-0.1613,-0.163,-0.1637,-0.1656,-0.1663,-0.1678,-0.1701,-0.169,-0.1717,-0.1711,-0.1741,-0.1746,-0.1736,-0.1743,-0.1758,-0.1798,-0.1805,-0.1811,-0.1816,-0.1823,-0.1736,-0.1736,-0.1736,-0.1736,0,-0.1603,-0.1622,-0.163,-0.1643,-0.166,-0.1681,-0.1693,-0.1721,-0.1739,-0.1746,-0.1784,-0.1777,-0.1797,-0.1791,-0.1778,-0.1823,-0.1811,-0.1793,-0.179,-0.1823,-0.1825,-0.1832,-0.174,-0.1739,-0.1738,-0.1738,0,0,-0.1588,-0.1623,-0.163,-0.1658,-0.1686,-0.1701,-0.1738,-0.1772,-0.1813,-0.1823,-0.1873,-0.1868,-0.1879,-0.1879,-0.1871,-0.1891,-0.1928,-0.1872,-0.1871,-0.1885,-0.1967,-0.1791,-0.1781,-0.1921,-0.1923,-0.1924,-0.1947,0,-0.1595,-0.1627,-0.1641,-0.1691,-0.1717,-0.1752,-0.1786,-0.1823,-0.1853,-0.1901,-0.191,-0.1939,-0.1906,-0.1927,-0.1942,-0.1931,-0.195,-0.1923,-0.1928,-0.1928,-0.1774,-0.1784,-0.1929,-0.1952,-0.1954,-0.1955,-0.1956,0,-0.1586,-0.1616,-0.1665,-0.1737,-0.1754,-0.1787,-0.1872,-0.1901,-0.1961,-0.1987,-0.2026,-0.2029,-0.2063,-0.2025,-0.2041,-0.2029,-0.201,-0.1996,-0.1996,-0.1825,-0.1764,-0.1914,-0.1968,-0.1967,-0.1966,-0.1965,-0.1965,0,-0.1575,-0.1636,-0.1686,-0.1708,-0.1779,-0.1828,-0.1871,-0.1937,-0.1969,-0.2051,-0.2079,-0.212,-0.2131,-0.2133,-0.2078,-0.2079,-0.208,-0.2073,-0.1901,-0.1888,-0.2024,-0.2016,-0.2092,-0.2092,-0.2092,-0.2092,-0.2092,0,-0.1562,-0.1607,-0.1695,-0.172,-0.1788,-0.1846,-0.192,-0.1968,-0.2041,-0.206,-0.2123,-0.2125,-0.2159,-0.2144,-0.2114,-0.2004,-0.2103,-0.1912,-0.1881,-0.2039,-0.2033,-0.2028,-0.202,-0.2093,-0.2093,-0.2093,-0.2093,0,-0.1518,-0.1582,-0.1641,-0.1743,-0.1779,-0.1826,-0.192,-0.1955,-0.2045,-0.2075,-0.2098,-0.2142,-0.2106,-0.2106,-0.2093,-0.2012,-0.1954,-0.1891,-0.2054,-0.2031,-0.1755,-0.175,-0.1731,-0.1725,-0.172,-0.1715,-0.1712,0,-0.1484,-0.1515,-0.1635,-0.1664,-0.171,-0.1792,-0.1828,-0.1936,-0.1955,-0.2038,-0.2023,-0.2043,-0.204,-0.1886,-0.1908,-0.1846,-0.181,-0.1792,-0.1784,-0.1745,-0.1719,-0.1721,-0.1722,-0.1704,-0.1702,-0.1701,-0.17,0,-0.1409,-0.1472,-0.1515,-0.1581,-0.1636,-0.1683,-0.1745,-0.1755,-0.1846,-0.1951,-0.1885,-0.1852,-0.1803,-0.1763,-0.1712,-0.1668,-0.1817,-0.1739,-0.175,-0.1742,-0.1712,-0.1691,-0.1699,-0.1682,-0.1684,-0.1686,-0.1687,0,-0.134,-0.1353,-0.142,-0.146,-0.1528,-0.1535,-0.1596,-0.1599,-0.1638,-0.1735,-0.1698,-0.1713,-0.1767,-0.1666,-0.1618,-0.1557,-0.1542,-0.1506,-0.153,-0.155,-0.1472,-0.1406,-0.1255,0,0,0,0,0,-0.1257,-0.1254,-0.1283,-0.1322,-0.1384,-0.1418,-0.1507,-0.1567,-0.1669,-0.157,-0.1632,-0.1568,-0.1491,-0.1505,-0.14,-0.1537,-0.1554,-0.1411,-0.1529,-0.1583,-0.1604,-0.1525,0,0,0,0,0,0,-0.1198,-0.1225,-0.1236,-0.1194,-0.1188,-0.1235,-0.1287,-0.136,-0.1319,-0.1425,-0.1384,-0.1463,-0.1407,-0.1508,-0.136,-0.1363,-0.1403,-0.1433,-0.1428,-0.1572,-0.159,-0.1607,-0.1533,0,0,0,0,0]},{"header":{"parameterUnit":"m.s-1","parameterCategory":2,"la1":30.2991,"la2":30.254,"lo1":-89.0895,"lo2":-89.0444,"dy":0.0017,"dx":0.0017,"nx":28,"ny":28,"refTime":"2025-08-18T09:00:00:Z","depth":"4","parameterNumber":3,"parameterNumberName":"V-component_of_CURRENTS"},"data":[0,0,0,0,0,0,0,0,0,0,0,0,0,0,0,0,0,0,0,0,0,0,0,0,0,0,0,0,0,0,0,0,0,0,0,0,0,0,0,0,0,0,0,0,0,0,0,0,0,0,0,0,0,0,0,0,0,0,-0.0342,-0.0341,0,-0.0333,-0.0334,-0.0334,-0.0316,-0.0315,-0.0314,-0.0314,-0.0264,-0.0263,-0.0262,0,0,0,0,0,0,0,0,0,0,0,0,0,-0.0332,-0.0332,-0.0342,-0.0341,-0.0341,-0.0333,-0.0334,-0.0334,-0.0316,-0.0315,-0.0314,-0.0313,-0.0264,-0.0263,-0.0262,0,0,0,0,0,0,0,0,0,0,0,0,0,-0.0334,-0.0332,-0.0342,-0.0329,-0.0327,-0.0333,-0.0334,-0.0334,-0.0316,-0.0315,-0.0314,-0.0313,-0.0264,-0.0263,-0.0262,-0.0276,0,0,-0.0259,-0.0258,0,0,0,0,0,0,0,0,-0.0334,-0.0335,-0.0331,-0.033,-0.0328,-0.0322,-0.0311,-0.0311,-0.0316,-0.0324,-0.0314,-0.0312,-0.0278,-0.0276,-0.0282,-0.0274,-0.0271,-0.0259,-0.0258,-0.0258,-0.0257,0,0,0,0,0,0,0,-0.0334,-0.0335,-0.0342,-0.0331,-0.0329,-0.0319,-0.0319,-0.0312,-0.0308,-0.0323,-0.0321,-0.0315,-0.0277,-0.0283,-0.028,-0.0271,-0.0259,-0.0258,-0.0257,-0.0257,-0.026,-0.026,0,0,0,0,0,0,-0.033,-0.0335,-0.0342,-0.0341,-0.0325,-0.032,-0.032,-0.0327,-0.0309,-0.0305,-0.0316,-0.0314,-0.0285,-0.0281,-0.0278,-0.0275,-0.0258,-0.0257,-0.0256,-0.0259,-0.026,-0.0261,0,0,0,0,0,0,-0.033,-0.0331,-0.0342,-0.0334,-0.0335,-0.0321,-0.033,-0.0328,-0.0332,-0.0304,-0.0299,-0.0321,-0.0284,-0.028,-0.0276,-0.0273,-0.0256,-0.0255,-0.0258,-0.0259,-0.026,-0.0279,0,0,0,0,0,0,-0.033,-0.0332,-0.0343,-0.0335,-0.0335,-0.0352,-0.033,-0.0328,-0.0328,-0.0326,-0.0307,-0.0301,-0.0283,-0.0278,-0.0275,-0.0271,-0.0255,-0.0257,-0.0259,-0.026,-0.0278,-0.0281,-0.0284,0,0,0,0,0,-0.033,-0.0349,-0.0344,-0.0345,-0.0349,-0.0353,-0.0353,-0.0341,-0.0329,-0.034,-0.0324,-0.0302,-0.0284,-0.0278,-0.0274,-0.027,-0.0257,-0.0258,-0.026,-0.0277,-0.028,-0.0283,0,0,0,0,0,0,-0.0355,-0.0349,-0.0343,-0.0361,-0.0358,-0.0348,-0.0356,-0.0346,-0.0345,-0.0342,-0.0314,-0.0308,-0.0308,-0.0292,-0.0286,-0.0277,-0.0265,-0.0266,-0.0279,-0.0283,-0.0286,-0.0254,-0.0254,0,0,0,0,0,-0.0365,-0.0377,-0.0367,-0.0382,-0.0381,-0.037,-0.0371,-0.0364,-0.0356,-0.0355,-0.0339,-0.0323,-0.0314,-0.03,-0.0298,-0.029,-0.0243,-0.0285,-0.0288,-0.029,-0.0264,-0.019,-0.0183,-0.0266,-0.0266,-0.0266,0,0,-0.0378,-0.0376,-0.0384,-0.0388,-0.0385,-0.0386,-0.037,-0.0376,-0.0373,-0.0349,-0.0348,-0.0341,-0.0319,-0.0315,-0.0311,-0.0296,-0.025,-0.0292,-0.0294,-0.0266,-0.0191,-0.0182,-0.0174,-0.0267,-0.0267,-0.0266,0,0,-0.0405,-0.041,-0.0424,-0.0422,-0.0417,-0.0408,-0.041,-0.0404,-0.0398,-0.0403,-0.0381,-0.036,-0.0362,-0.0325,-0.031,-0.0325,-0.0279,-0.0341,-0.0312,-0.0242,-0.0233,-0.0225,-0.0182,-0.0169,-0.0328,-0.0328,-0.0328,0,-0.0421,-0.0435,-0.043,-0.0436,-0.0431,-0.0417,-0.0423,-0.0419,-0.0413,-0.0396,-0.0407,-0.037,-0.0356,-0.0308,-0.0316,-0.0325,-0.0291,-0.03,-0.0242,-0.0232,-0.0223,-0.0181,-0.0167,-0.0329,-0.0329,-0.0329,-0.0329,0,-0.0449,-0.046,-0.0468,-0.0467,-0.0464,-0.0471,-0.0454,-0.0452,-0.0444,-0.0425,-0.0398,-0.0377,-0.0339,-0.0342,-0.0333,-0.0267,-0.0268,-0.0264,-0.0225,-0.0215,-0.0173,-0.0158,-0.0331,-0.033,-0.033,-0.033,0,0,-0.0483,-0.0486,-0.0489,-0.049,-0.0479,-0.0481,-0.047,-0.0447,-0.0428,-0.0415,-0.0378,-0.0352,-0.0324,-0.0304,-0.0284,-0.0218,-0.0143,-0.0214,-0.021,-0.0158,-0.0004,-0.0032,-0.0018,-0.0129,-0.0126,-0.0123,-0.0008,0,-0.0505,-0.0525,-0.0514,-0.0526,-0.0531,-0.0505,-0.0495,-0.0468,-0.0446,-0.0412,-0.0354,-0.0329,-0.0315,-0.0301,-0.0229,-0.0176,-0.01,-0.0175,-0.0032,-0.0027,-0.004,0.0001,-0.0114,0.0003,0.0007,0.0009,0.0011,0,-0.053,-0.0539,-0.0558,-0.0548,-0.0546,-0.055,-0.0516,-0.0505,-0.044,-0.0419,-0.0354,-0.0317,-0.0227,-0.0225,-0.0073,-0.0127,-0.0055,-0.0004,0.0002,0.0004,-0.0025,-0.0003,0.0039,0.0037,0.0035,0.0033,0.0031,0,-0.0556,-0.0565,-0.0582,-0.0581,-0.057,-0.0569,-0.0559,-0.0509,-0.0494,-0.0419,-0.0395,-0.0283,-0.0243,-0.0123,-0.0026,-0.0044,0.0138,0.0126,0.0181,0.0178,0.0177,0.0167,0.0269,0.0269,0.0268,0.0268,0.0268,0,-0.0577,-0.0592,-0.0602,-0.0614,-0.063,-0.0604,-0.0603,-0.0573,-0.0521,-0.0489,-0.0404,-0.0351,-0.0214,-0.0105,-0.0005,0.0129,0.0162,0.021,0.0222,0.0158,0.0145,0.0186,0.0175,0.0272,0.0271,0.027,0.027,0,-0.0603,-0.061,-0.0637,-0.0643,-0.0651,-0.0664,-0.0657,-0.0646,-0.0592,-0.0546,-0.0523,-0.0396,-0.0255,-0.0116,0.0071,0.0139,0.0276,0.0322,0.0236,0.0236,0.0264,0.025,0.0402,0.0402,0.0402,0.0403,0.0403,0,-0.0614,-0.0634,-0.0674,-0.07,-0.0712,-0.0729,-0.0737,-0.0695,-0.0673,-0.0569,-0.0542,-0.0402,-0.0305,-0.0054,0.0083,0.0287,0.031,0.0373,0.0341,0.029,0.0286,0.0272,0.0258,0.0403,0.0403,0.0403,0.0403,0,-0.0635,-0.066,-0.0685,-0.0744,-0.0776,-0.0794,-0.0797,-0.0785,-0.0715,-0.0673,-0.0533,-0.039,-0.0231,-0.0049,0.0105,0.025,0.0325,0.0377,0.0377,0.0348,0.0293,0.0286,0.0272,0.0405,0.0404,0.0404,0.0404,0,-0.0654,-0.0684,-0.0728,-0.0773,-0.0821,-0.0836,-0.0834,-0.0782,-0.0746,-0.062,-0.0575,-0.0385,-0.0274,-0.0067,0.008,0.0212,0.0241,0.0272,0.0278,0.0279,0.0198,0.0108,0.0199,0,0,0,0,0,-0.0659,-0.0695,-0.0746,-0.0794,-0.0842,-0.0862,-0.0858,-0.0838,-0.0776,-0.068,-0.0618,-0.0458,-0.0218,-0.0109,0.0023,0.006,0.024,0.0215,0.0272,0.041,0.0409,0.0332,0,0,0,0,0,0,-0.0665,-0.0719,-0.0744,-0.0798,-0.0834,-0.0872,-0.0871,-0.0829,-0.0757,-0.0677,-0.0544,-0.0448,-0.0217,-0.0296,0.0018,0.0059,0.0108,0.0335,0.0337,0.0411,0.041,0.0409,0.0329,0,0,0,0,0]}]]